Theta_e
297 297 297 297 297 298 295 296 288 292 293 296 299 300 301 304 304 303 304 304 306 307 309 312 315 317 317 317 318 315 313 324 322 324 325 323 323 320 318 315 313 311 308 306
293 297 298 296 299 299 299 297 297 296 294 300 302 303 302 303 303 302 302 304 305 306 308 309 313 315 314 316 316 321 317 319 318 319 320 319 317 313 312 309 308 307 307 304
287 296 296 291 297 299 298 298 297 290 295 300 299 301 300 302 301 302 302 304 305 306 307 310 312 314 312 313 315 318 320 318 315 313 311 310 310 308 307 306 306 304 303 303
288 292 284 297 304 302 299 300 298 298 299 302 300 301 304 303 300 302 302 303 306 306 307 308 310 311 312 312 312 313 315 314 312 309 308 308 307 306 305 305 302 301 302 303
286 286 293 298 300 300 297 295 299 297 299 301 301 302 300 305 304 303 303 305 305 307 307 306 307 308 309 308 309 309 309 310 311 308 306 305 304 303 302 301 300 301 302 301
290 285 283 297 303 305 302 289 300 301 298 299 299 294 297 305 300 302 304 304 305 307 305 303 304 305 303 304 304 305 307 307 307 307 305 303 302 301 301 300 299 300 297 296
288 288 293 301 304 305 289 289 302 302 300 299 297 301 305 303 301 303 302 302 304 306 302 301 303 302 300 301 302 304 305 305 304 303 301 301 300 300 299 299 298 296 294 293
290 286 283 304 303 294 299 302 303 302 302 300 301 306 304 304 302 300 301 301 302 304 300 300 301 300 299 299 302 304 304 303 302 302 301 300 298 298 298 297 295 293 291 290
293 291 299 302 298 304 304 302 303 300 303 303 303 306 304 302 301 300 301 301 301 302 298 298 299 299 298 300 302 302 301 299 299 299 299 299 297 296 295 296 294 292 290 289
293 297 299 301 303 304 304 305 304 304 303 305 303 307 303 302 300 300 300 299 300 300 296 295 297 298 298 300 301 300 299 299 299 298 297 297 297 297 295 293 291 290 289 288
292 297 301 302 304 304 306 309 307 306 305 305 307 304 304 300 301 300 299 299 300 297 294 294 296 297 298 300 301 299 299 298 298 295 292 290 290 293 293 293 291 288 288 290
291 299 298 298 302 304 303 304 305 307 305 307 308 307 304 299 298 299 298 298 298 295 294 294 296 296 298 300 301 298 295 295 293 291 290 290 289 288 290 291 291 290 289 289
297 302 301 302 304 306 304 307 308 307 306 306 309 306 305 299 298 299 298 298 297 295 294 295 295 295 297 298 297 295 292 292 291 290 289 289 288 287 285 287 289 289 289 289
302 303 300 302 300 304 306 307 308 308 306 309 309 308 304 300 298 297 297 298 297 295 295 295 295 295 297 297 295 294 293 292 291 290 289 288 287 286 286 285 284 285 287 287
304 304 302 304 305 305 307 308 306 305 305 308 309 308 304 300 297 297 298 298 296 295 294 294 294 295 298 297 296 295 294 292 292 291 290 289 287 287 286 285 285 284 284 287
303 302 302 301 302 303 304 305 306 307 308 308 309 307 303 301 299 298 298 298 295 293 294 294 294 295 297 297 296 295 294 292 292 292 290 288 286 286 286 287 286 286 286 286
299 298 298 299 300 301 302 305 307 308 309 310 309 308 303 300 298 299 298 297 296 294 294 294 294 296 297 296 295 294 294 294 290 291 289 288 287 287 288 289 288 289 290 289
302 299 299 299 300 301 303 305 308 309 307 310 309 308 303 301 297 297 296 296 294 293 293 294 295 296 296 296 295 295 294 295 293 290 290 290 289 289 290 290 290 289 289 289
301 300 301 302 302 302 303 305 308 311 311 311 309 306 305 301 297 296 296 294 293 291 292 294 294 295 295 296 296 296 296 295 293 292 293 290 293 292 291 290 290 290 291 291
300 301 301 301 303 303 304 306 309 310 310 310 310 306 302 300 297 296 294 293 293 293 294 294 294 295 295 295 293 294 296 295 294 294 294 293 292 291 290 289 291 291 291 290
297 298 298 299 299 302 303 307 309 308 309 311 308 305 302 301 299 298 294 291 293 294 294 293 294 295 295 293 294 295 296 295 295 294 293 292 291 291 291 292 292 291 291 290
295 295 297 297 300 301 306 308 308 309 309 311 309 305 302 298 298 297 296 292 293 289 293 294 294 291 292 290 297 297 296 296 295 294 293 292 292 293 292 292 291 291 290 289
295 295 295 296 296 300 305 304 304 306 305 308 307 304 303 299 297 292 290 292 293 291 294 293 289 288 289 297 297 297 297 297 295 294 293 292 294 294 293 292 291 291 290 289
293 294 294 296 298 299 298 301 302 303 304 308 307 305 300 297 296 295 293 289 288 290 293 291 290 288 290 297 297 297 297 297 296 296 295 292 295 294 293 292 291 290 289 289
294 293 294 294 294 295 298 299 301 301 304 304 304 303 300 299 294 292 292 291 287 291 292 287 288 290 297 297 296 296 296 296 295 296 295 295 294 293 292 291 290 289 289 289
293 293 294 294 295 296 296 297 298 300 300 300 300 298 296 295 293 292 292 291 292 290 292 293 296 297 297 297 297 296 295 295 295 295 294 294 293 292 291 291 290 290 290 290
295 293 294 295 295 295 295 295 296 297 297 298 296 295 295 294 292 291 290 292 292 293 294 295 296 296 298 298 296 295 295 296 293 295 294 293 293 292 292 291 290 290 290 290
Wind_Speed
13 16 17 19 10 8 5 5 4 6 7 9 13 10 5 8 12 16 19 19 20 21 19 16 15 13 13 13 12 7 12 3 5 7 12 15 13 24 18 19 17 21 19 17
11 15 16 9 8 2 5 4 4 6 5 7 8 9 6 8 12 14 16 17 18 19 20 19 17 12 14 17 22 21 10 6 13 14 17 14 16 16 20 22 18 21 18 18
6 13 15 5 3 4 4 6 3 4 6 6 7 11 4 7 8 12 13 16 16 17 18 16 15 15 11 10 8 9 12 9 15 18 18 16 10 20 20 20 21 19 18 18
6 11 3 2 14 14 15 7 3 7 7 7 5 2 4 2 5 11 13 15 16 14 15 17 14 13 12 9 10 11 9 9 13 17 20 16 15 18 20 17 20 18 18 18
1 3 10 6 7 1 8 1 3 6 9 4 7 7 1 2 3 6 9 12 13 11 13 15 14 11 9 8 7 12 11 9 9 17 23 18 16 18 19 22 20 15 14 16
4 3 4 6 10 10 7 1 10 13 8 7 7 8 5 2 2 5 8 10 12 12 11 14 15 11 10 8 10 12 13 11 10 16 17 22 16 14 17 20 21 15 14 12
5 5 2 5 11 8 6 7 6 6 5 7 5 4 3 4 4 6 7 11 13 10 10 13 13 10 9 8 8 9 15 14 13 16 20 19 21 14 16 19 20 16 15 11
3 3 4 7 5 3 7 2 3 5 6 6 8 6 6 6 7 6 9 11 12 9 9 11 11 8 8 8 6 9 16 18 14 14 13 14 22 17 16 18 19 16 15 13
5 6 6 6 4 4 1 4 3 3 5 7 7 5 7 6 6 7 7 8 9 6 8 9 10 7 6 6 6 10 17 20 16 16 16 16 16 17 15 14 13 13 12 11
6 9 14 11 5 7 8 4 4 4 3 6 5 5 7 6 6 6 7 7 8 7 7 7 7 8 7 6 6 13 20 19 15 16 18 15 11 10 11 11 11 11 10 9
9 11 8 7 5 3 3 5 4 2 3 5 4 7 8 5 6 5 6 7 7 6 6 6 6 7 7 5 7 13 16 16 16 12 14 12 10 6 7 10 10 11 9 9
7 6 2 6 7 7 6 6 7 3 3 5 6 6 11 6 4 5 6 6 6 6 6 6 6 8 7 6 7 13 15 13 11 11 10 11 12 13 22 20 21 20 17 11
6 8 8 9 7 7 5 5 5 4 4 1 6 8 11 7 4 6 5 7 7 6 6 7 8 10 8 10 12 14 13 12 11 12 11 10 10 11 13 15 22 19 18 15
17 8 8 9 7 9 8 8 9 6 2 4 9 8 11 9 6 6 5 6 6 6 9 8 10 11 9 12 16 15 14 17 11 11 10 11 8 9 10 12 11 9 11 8
4 6 3 6 9 10 11 14 12 5 4 4 9 10 12 9 9 6 5 5 7 7 8 8 10 10 8 12 16 16 13 11 11 10 9 9 8 10 10 11 9 7 4 7
8 7 7 8 8 9 10 13 13 16 4 6 11 10 11 10 12 8 6 4 5 5 7 8 8 8 9 10 12 11 12 19 13 10 8 8 8 10 10 9 9 7 5 4
6 6 6 6 7 8 11 12 9 10 5 11 12 14 12 10 11 9 7 7 8 7 8 7 8 10 11 11 12 10 9 8 6 8 8 9 9 9 9 8 7 5 4 6
4 5 7 7 8 8 9 15 12 18 3 14 14 13 13 10 11 9 9 8 9 8 8 8 7 9 11 13 11 8 5 4 6 9 9 9 9 7 5 7 7 8 7 9
10 10 10 9 9 13 9 13 12 8 10 13 13 12 9 12 13 11 10 9 8 10 7 10 12 11 13 11 4 1 1 8 10 8 8 9 7 8 7 7 9 8 9 9
14 13 13 14 13 12 11 10 14 3 5 12 14 13 13 12 12 11 9 8 6 6 10 12 10 10 11 5 1 4 5 8 6 8 7 10 9 9 8 7 8 9 8 7
11 12 12 13 15 16 15 12 3 5 7 8 10 13 12 12 12 12 10 7 7 12 12 13 10 9 5 2 3 4 4 8 7 11 10 8 9 9 5 9 10 10 9 7
9 9 10 12 13 12 13 2 2 5 7 9 7 12 12 11 11 9 7 9 8 11 10 8 8 8 4 1 3 1 6 6 9 8 9 9 6 7 10 9 9 8 8 7
6 8 8 9 12 13 5 7 6 7 5 11 12 13 10 8 8 9 7 7 9 9 8 8 9 11 6 2 5 2 4 6 10 8 6 5 7 10 9 9 8 8 8 7
5 6 6 7 10 6 8 7 6 5 4 10 9 13 14 9 6 5 8 9 11 10 8 10 10 11 5 6 2 2 4 7 8 7 5 10 10 10 10 9 9 9 9 8
4 4 4 4 6 5 6 6 4 5 6 10 10 10 11 7 5 7 9 9 11 10 10 10 11 10 5 7 4 4 4 8 4 7 9 10 11 11 11 11 10 9 7 6
3 3 3 3 3 3 3 4 2 3 3 7 6 7 8 8 9 9 9 11 10 11 11 11 11 9 9 8 6 1 6 7 8 10 12 11 12 11 10 9 8 8 8 8
3 5 4 1 1 1 3 3 3 3 3 5 8 6 9 9 9 10 11 9 10 10 11 11 9 10 9 9 5 4 8 8 10 11 10 10 9 8 9 10 9 8 8 7
Wind_Direction
291 301 302 305 340 38 61 309 236 325 346 2 336 326 10 349 341 340 338 342 338 335 336 335 347 350 344 5 335 337 359 306 81 75 106 97 136 103 119 113 117 109 107 98
300 290 291 305 329 351 252 303 20 346 329 341 303 341 28 349 339 338 334 336 338 335 333 339 340 1 0 6 354 298 292 125 96 89 111 113 121 109 118 108 102 107 108 105
279 304 324 291 199 272 55 82 18 349 279 301 342 351 14 330 332 333 334 329 338 343 334 335 337 347 14 5 356 15 129 149 113 106 90 95 106 105 95 103 114 107 103 107
276 314 317 72 25 19 352 87 356 304 298 322 353 10 188 255 293 333 341 336 336 340 341 342 341 357 356 3 21 39 57 91 99 98 97 98 105 106 98 109 98 101 103 103
254 327 275 35 5 10 274 245 305 320 331 21 349 328 209 211 280 311 342 333 332 335 341 338 347 357 3 5 30 55 45 54 112 113 110 98 113 111 112 104 98 95 102 108
301 282 276 20 313 331 301 175 345 332 334 7 353 358 312 212 300 352 2 341 335 340 349 342 353 0 13 26 47 56 64 53 73 97 104 109 104 106 106 105 106 105 96 91
268 269 159 247 29 335 36 263 321 36 9 351 333 243 326 112 25 18 357 348 341 352 7 351 352 3 7 19 53 80 83 69 71 88 97 102 103 100 102 104 104 100 94 85
291 303 316 352 45 24 232 272 322 358 343 326 311 330 38 55 45 19 2 351 346 355 15 356 356 3 1 22 37 70 90 88 72 90 97 102 99 104 101 104 104 102 95 81
193 226 312 357 275 259 59 63 39 4 322 335 335 4 74 55 56 24 359 346 341 19 25 9 6 3 6 10 60 91 88 80 82 92 90 93 102 103 102 102 98 101 97 95
354 341 317 300 354 41 13 355 317 302 16 328 321 45 71 58 48 28 355 351 337 30 39 21 15 19 7 31 63 94 97 96 97 93 93 89 89 90 98 99 102 99 101 107
300 291 304 349 330 284 302 324 323 344 354 319 25 66 89 73 65 20 354 339 353 55 44 36 29 34 20 36 103 98 97 99 98 86 83 85 65 70 86 95 110 118 116 109
270 300 295 283 306 321 306 275 282 152 298 329 115 105 104 99 77 48 353 352 10 59 60 49 50 49 33 36 88 97 99 97 100 101 94 87 87 79 56 82 87 88 89 98
290 282 275 269 304 316 329 329 317 204 251 190 90 105 111 113 90 72 18 12 35 62 57 57 57 52 47 58 67 77 88 95 96 92 95 100 94 97 103 72 72 79 87 87
300 312 360 352 315 314 317 282 281 233 224 178 127 101 111 108 103 76 40 39 64 78 60 50 67 69 70 88 90 85 80 86 90 91 93 91 94 105 103 104 108 98 52 83
308 359 299 333 355 350 347 345 329 278 231 157 123 121 122 117 101 90 88 76 85 89 83 63 74 59 65 98 102 101 95 86 87 84 81 93 101 100 102 106 105 102 83 48
298 322 1 352 346 335 329 329 339 331 191 153 125 111 122 121 113 111 108 104 106 99 98 95 81 65 68 80 89 92 94 97 96 99 109 103 102 103 102 103 104 99 89 92
12 325 345 341 331 325 324 308 313 312 304 128 132 126 130 124 111 113 106 95 101 102 100 102 97 94 85 83 91 96 100 106 131 129 109 112 112 108 106 105 101 86 77 82
41 354 344 336 321 302 309 306 313 305 262 141 135 128 139 140 124 123 118 112 112 107 108 106 99 104 98 102 111 114 131 186 125 120 119 116 113 113 103 99 94 102 104 95
358 349 336 328 319 302 298 300 304 273 145 149 145 138 138 132 126 129 128 125 123 127 125 118 113 108 120 127 125 211 267 128 125 129 123 123 107 108 102 100 108 103 104 100
342 333 324 314 305 294 299 302 289 230 149 146 130 130 128 130 130 134 132 127 130 127 132 129 112 119 139 128 75 242 148 130 132 120 108 113 117 121 120 105 98 101 100 101
322 317 305 312 309 301 293 289 208 126 98 70 134 132 134 134 137 131 125 125 130 135 139 132 130 137 137 31 325 315 110 117 108 119 118 121 124 125 108 104 107 107 107 100
316 316 324 323 323 308 283 215 101 149 129 115 132 122 124 121 125 112 118 133 137 137 141 142 143 129 111 152 269 9 107 107 116 117 124 131 131 118 114 113 109 108 104 95
305 313 319 325 319 309 347 48 62 61 73 132 140 137 131 127 132 124 126 135 140 137 140 143 133 122 141 233 96 47 92 107 127 130 129 122 116 115 114 112 112 107 96 95
292 292 301 324 324 352 8 14 20 48 34 121 135 133 132 130 95 89 116 129 128 138 132 141 140 139 143 101 119 116 48 116 119 126 118 116 111 110 106 100 94 94 99 95
261 293 299 331 341 344 13 343 331 26 58 94 111 111 115 114 115 132 133 131 125 127 136 134 128 118 124 152 159 86 22 71 77 101 103 108 110 104 100 103 105 107 97 88
313 305 303 282 293 336 336 338 358 59 62 110 96 100 100 107 114 121 125 130 131 135 143 151 140 139 146 146 164 73 112 95 91 92 95 97 102 105 108 106 97 95 101 105
246 266 280 184 339 2 337 352 339 69 71 118 109 111 119 121 121 124 127 130 137 139 144 145 146 148 154 168 200 126 94 99 103 99 99 103 104 101 101 101 101 106 110 106